Location: Unspecified
(38.7273°N, 77.0677°W)
Time: 23:06:54
(UTC-04:00)

ISS - Pass Details

Date: 29 June 2021
Orbit: 419 x 421 km, 51.6° (Epoch: 03 August)

Event Time Altitude Azimuth Distance (km) Brightness Sun altitude
Exits shadow 02:54:39 12° 100° (E) 1,355 -1.0 -23.5°
Drops below altitude 10° 02:55:16 10° 90° (E) 1,498 -0.7 -23.5°
Sets 02:57:56 0° 68° (ENE) 2,365 0.8 -23.3°
